This is the latest recevied weather packets stored in our database for station/object 7L2IWN-13. If no packets are shown the sender has not sent any weather packets the latest 10 day(s).
| Time | Temp. | Humidity | Pressure | Rain* | Wind** | Luminosity | Snow |
|---|---|---|---|---|---|---|---|
| 1777852701 | 17.22° C | 95% | 997.4 hPa | 0 mm | - | - | - |
| 1777851982 | 17.22° C | 97% | 997.1 hPa | 0 mm | - | - | - |
| 1777851261 | 16.67° C | 97% | 997.4 hPa | 0 mm | - | - | - |
| 1777850541 | 17.22° C | 96% | 997.2 hPa | 0 mm | - | - | - |
| 1777849822 | 17.22° C | 96% | 997.5 hPa | 0 mm | - | - | - |
| 1777848384 | 16.11° C | 99% | 997.6 hPa | 0 mm | - | - | - |
| 1777847661 | 15.56° C | 99% | 997.7 hPa | 0 mm | - | - | - |
| 1777846942 | 15° C | 99% | 997.5 hPa | 0 mm | - | - | - |
| 1777846222 | 14.44° C | 99% | 996.9 hPa | 0 mm | - | - | - |
| 1777845502 | 14.44° C | 99% | 997.5 hPa | 0 mm | - | - | - |
| 1777844781 | 14.44° C | 99% | 997.4 hPa | 0 mm | - | - | - |
| 1777844062 | 14.44° C | 99% | 997.2 hPa | 0 mm | - | - | - |
| 1777843341 | 14.44° C | 99% | 997.1 hPa | 0 mm | - | - | - |
| 1777842622 | 13.89° C | 99% | 997 hPa | 0.51 mm | - | - | - |
| 1777841902 | 13.89° C | 99% | 997.2 hPa | 0.51 mm | - | - | - |
| 1777841182 | 13.89° C | 99% | 997.5 hPa | 4.57 mm | - | - | - |
| 1777840461 | 13.89° C | 99% | 997.7 hPa | 4.57 mm | - | - | - |
| 1777839742 | 13.89° C | 99% | 997.8 hPa | 4.57 mm | - | - | - |
| 1777839022 | 13.89° C | 99% | 997.4 hPa | 4.06 mm | - | - | - |
| 1777838302 | 13.89° C | 99% | 997.3 hPa | 4.06 mm | - | - | - |
| 1777837581 | 14.44° C | 99% | 997.8 hPa | 0 mm | - | - | - |
| 1777836862 | 14.44° C | 99% | 997.6 hPa | 1.52 mm | - | - | - |
| 1777836143 | 14.44° C | 99% | 998.1 hPa | 1.52 mm | - | - | - |
| 1777835421 | 14.44° C | 99% | 997.6 hPa | 1.52 mm | - | - | - |
| 1777834701 | 14.44° C | 99% | 997.7 hPa | 1.78 mm | - | - | - |
* Rain latest hour (hover to see other rain measurements)
** Current wind speed in m/s (hover to see current wind gust speed)